Retour au catalogue

STARLINK-2741

ActifCommunicationsVLEO
NORAD 48684·PAYLOAD·🇺🇸 United States

Lancé May 26, 2021 depuis Cape Canaveral Space Force Station

Loading…

Prochains Passages (prochaines 24 heures)

TLE

FraisSource: CelesTrak SupGP

Époque: Sep 15, 2026, 02:39 UTC

1 48684C 21044AY  26258.11090278 -.00007426  00000+0 -23868-3 0  2580
2 48684  53.1578 276.3937 0000859  79.5404 356.4460 15.31722269    16

Suivez STARLINK-2741 en temps réel avec AllMySat

Download on the App Store